User: anonymous   Login
Location: Unspecified
(51.3762°N, 0.0000°E)
Time: 20:16:40
(UTC+00:00)
Language:

AO-92 - Orbit

View from above orbital plane
View from above orbital plane
View from above satellite
View from above satellite

Ground track
Ground track

The orbit data is extracted from the following two-line orbital elements,

1 43137U 18004AC  19233.86487402 +.00000532 +00000-0 +25242-4 0  9997
2 43137 097.4831 301.5120 0010254 039.9920 320.2070 15.23540980089275
Epoch (UTC): 21 August 2019 20:45:25
Eccentricity: 0.0010254
inclination: 97.4831°
perigee height: 488 km
apogee height: 502 km
right ascension of ascending node: 301.5120°
argument of perigee: 39.9920°
revolutions per day: 15.23540980
mean anomaly at epoch: 320.2070°
orbit number at epoch: 8927

The dashed part of the orbit path shows where the satellite is in the earth's shadow,  

DLR